Regional Weather Roundup
Issued by NWS

Home | Current Version | Previous Version | Graphics & Text | Print | Product List | Glossary On
Versions: 1 2 3 4 5 6 7 8 9 10 11 12 13 14 15 16 17 18 19 20 21 22 23 24 25 26 27 28 29 30 31 32 33 34 35 36 37 38 39 40 41 42 43 44 45 46 47 48 49 50
000
ASUS43 KOAX 242010
RWRNE

WEATHER ROUNDUP FOR NEBRASKA
NATIONAL WEATHER SERVICE OMAHA NE
300 PM CDT THU APR 24 2014

NOTES: SATELLITE DATA IS BEING USED TO AUGMENT CLOUD COVER ABOVE
       12000 FEET.
       "FAIR" INDICATES FEW OR NO CLOUDS BELOW 12,000 FEET WITH NO
       SIGNIFICANT WEATHER AND/OR OBSTRUCTIONS TO VISIBILITY.

  * THESE STATIONS DO NOT REPORT WEATHER SUCH AS RAIN...SNOW OR FOG.

NEZ001>004-019>022-054>056-242100-
NEBRASKA PANHANDLE

CITY           SKY/WX    TMP DP  RH WIND       PRES   REMARKS
SCOTTSBLUFF    PTSUNNY   64  15  15 NW15      29.87F
ALLIANCE       SUNNY     62  14  15 W15G26    29.85F
CHADRON        SUNNY     65  22  19 NW13G23   29.82F
KIMBALL        PTSUNNY   62  12  14 NW20G30   29.89F
SIDNEY         MOSUNNY   64  15  15 NW14G26   29.90F
$$

NEZ057>060-069>072-079>082-242100-
SOUTHWEST NEBRASKA

CITY           SKY/WX    TMP DP  RH WIND       PRES   REMARKS
NORTH PLATTE   SUNNY     67  22  18 W15G31    29.84F
IMPERIAL       SUNNY     67   9  10 NW20G25   29.89F
LEXINGTON      SUNNY     70  16  13 NW20G30   29.83S
MCCOOK         SUNNY     69  15  12 NW17      29.87F
OGALLALA       SUNNY     65  11  12 NW18      29.87F
$$

NEZ005>010-023>029-035>040-094-242100-
NORTH CENTRAL NEBRASKA

CITY           SKY/WX    TMP DP  RH WIND       PRES   REMARKS
VALENTINE      SUNNY     67  18  15 NW20G30   29.80F
AINSWORTH      SUNNY     67  19  16 NW22G30   29.80F
BROKEN BOW     SUNNY     68  12  11 N25G35    29.81F
O`NEILL        SUNNY     68   8   9 NW22G31   29.78S
ORD            SUNNY     69  20  15 N17G31    29.78F
THEDFORD       SUNNY     69  13  11 NW15G25   29.83S
$$

NEZ041-046>049-061>064-073>077-083>087-242100-
SOUTH CENTRAL NEBRASKA

CITY           SKY/WX    TMP DP  RH WIND       PRES   REMARKS
GRAND ISLAND   MOSUNNY   68  29  23 NW18      29.80S
AURORA         PTSUNNY   67  31  26 NW26G35   29.79F
HASTINGS       MOSUNNY   67  29  24 N18       29.81F
HEBRON         CLOUDY    64  37  38 N13G20    29.79F
HOLDREGE       SUNNY     67  21  17 NW15G26   29.83S
KEARNEY *      SUNNY     68  23  18 N20       29.82S
YORK           PTSUNNY   64  39  39 N18G26    29.78F
$$

NEZ011>018-030>034-042>045-242100-
NORTHEAST NEBRASKA

CITY           SKY/WX    TMP DP  RH WIND       PRES   REMARKS
NORFOLK        SUNNY     68  26  20 N28       29.73F
ALBION         SUNNY     66  25  20 N15G33    29.77S
BLAIR          CLOUDY    60  44  57 NW18G24   29.74S
COLUMBUS *     PTSUNNY   64  39  39 N17G23    29.77F
FREMONT        CLOUDY    63  44  48 NW20      29.76F
TEKAMAH        CLOUDY    63  47  55 N15       29.75S
$$

NEZ050>053-065>068-078-088>093-242100-
SOUTHEAST NEBRASKA

CITY           SKY/WX    TMP DP  RH WIND       PRES   REMARKS
LINCOLN        CLOUDY    65  40  39 N18G29    29.77R
OMAHA EPPLEY   CLOUDY    59  48  67 N13       29.75R
BEATRICE       CLOUDY    62  41  46 N23       29.78R
FALLS CITY     CLOUDY    57  50  77 NW16G26   29.70R
NEBRASKA CITY  CLOUDY    58  49  72 N23G30    29.72F
PLATTSMOUTH    CLOUDY    58  46  64 NW16G25   29.74S
$$

NEZ044-045-051>053-067-242100-
OMAHA AREA

CITY           SKY/WX    TMP DP  RH WIND       PRES   REMARKS
OMAHA EPPLEY   CLOUDY    59  48  67 N13       29.75R
BLAIR          CLOUDY    60  44  57 NW18G24   29.74S
FREMONT        CLOUDY    63  44  48 NW20      29.76F
MILLARD        CLOUDY    60  45  58 NW14G21   29.75S
OFFUTT AFB     CLOUDY    59  49  69 NW15      29.74R
PLATTSMOUTH    CLOUDY    58  46  64 NW16G25   29.74S
WAHOO          FAIR      63  44  50 N22G30    29.76S
$$



USA.gov is the U.S. government's official web portal to all federal, state and local government web resources and services.